Flag for India Weather past 2 weeks in Ahmedabad, Gujarat, India

Now
86 °F

Passing clouds.


Feels Like: 93 °F
Forecast: 82 / 96 °F
Wind: 14 mph from Southwest

Location: Ahmadabad Airport

Current Time: Jul 6, 2015 at 1:33:13 AM

Latest Report: Jul 6, 2015 at 12:40 AM


Visibility: 2 mi

Pressure: 29.59 "Hg

Humidity: 66%

Dew point: 73 °F

Location of AhmedabadLocation

Historic Weather in Ahmedabad — Graph

°F

Ahmedabad temperature yesterday

Maximum temperature yesterday: 100 °F (at 3:40 PM)
Minimum temperature yesterday: 84 °F (at 2:40 AM)
Average temperature yesterday: 91 °F

Past Weeks' High & Low Weather Summary

 TemperatureHumidityPressure
High102 °F (Jun 21, 2:40 PM)94% (Jun 24, 6:40 PM)29.77 "Hg (Jun 24, 6:40 PM)
Low79 °F (Jun 24, 6:40 PM)37% (Jul 4, 5:40 PM)29.33 "Hg (Jun 21, 4:40 PM)
Average89 °F66%29.59 "Hg
* Reported Jun 20 11:40 PM — Jul 6 12:10 AM, Ahmedabad, Weather by CustomWeather, © 2015

Note: Actual official high and low records may vary slightly from our data, if they occured in-between our weather recording intervals... More about our weather records

Advertising

Ahmedabad weather history for previous 24 hours

 ConditionsComfort  
Time TempWeatherWind HumidityBarometerVisibility
12:10 AM
Mon, Jul 6
86 °FPassing clouds.15 mph66%29.59 "Hg2 mi
11:40 PM
Sun, Jul 5
88 °FPassing clouds.18 mph62%29.59 "Hg2 mi
11:10 PM88 °FPassing clouds.17 mph62%29.59 "Hg2 mi
10:10 PM90 °FDuststorm.16 mph59%29.59 "Hg2 mi
9:40 PM91 °FDuststorm.17 mph56%29.59 "Hg2 mi
9:10 PM91 °FPassing clouds.16 mph56%29.56 "Hg2 mi
8:40 PM93 °FPassing clouds.18 mph49%29.56 "Hg2 mi
7:40 PM95 °FPassing clouds.14 mph50%29.53 "Hg2 mi
6:40 PM97 °FScattered clouds.14 mph47%29.53 "Hg4 mi
6:10 PM99 °FScattered clouds.15 mph44%29.53 "Hg4 mi
5:40 PM99 °FExtremely hot.14 mph44%29.53 "Hg4 mi
5:10 PM99 °FExtremely hot.15 mph44%29.53 "Hg4 mi
4:40 PM99 °FScattered clouds.16 mph44%29.53 "Hg4 mi
4:10 PM99 °FScattered clouds.15 mph47%29.56 "Hg4 mi
3:40 PM100 °FScattered clouds.12 mph45%29.56 "Hg4 mi
3:10 PM99 °FScattered clouds.15 mph47%29.56 "Hg4 mi
2:40 PM99 °FScattered clouds.16 mph44%29.59 "Hg4 mi
2:10 PM99 °FScattered clouds.14 mph47%29.59 "Hg4 mi
1:40 PM97 °FScattered clouds.14 mph50%29.62 "Hg4 mi
1:10 PM95 °FPartly sunny.15 mph53%29.62 "Hg4 mi
12:40 PM95 °FPartly sunny.16 mph53%29.62 "Hg4 mi
11:40 AM91 °FPartly sunny.14 mph63%29.65 "Hg3 mi
10:40 AM88 °FPartly sunny.12 mph66%29.65 "Hg3 mi
9:10 AM84 °FPartly sunny.14 mph74%29.68 "Hg2 mi
8:10 AM84 °FPartly sunny.12 mph74%29.65 "Hg2 mi
7:40 AM84 °FPartly sunny.10 mph74%29.65 "Hg2 mi
7:10 AM84 °FScattered clouds.9 mph74%29.65 "Hg2 mi
6:10 AM84 °FPassing clouds.9 mph70%29.65 "Hg2 mi
5:40 AM84 °FPassing clouds.12 mph70%29.65 "Hg2 mi
4:10 AM84 °FPassing clouds.14 mph70%29.65 "Hg2 mi
3:40 AM84 °FPassing clouds.12 mph70%29.65 "Hg2 mi
2:40 AM84 °FPassing clouds.15 mph70%29.65 "Hg2 mi
2:10 AM86 °FPassing clouds.15 mph66%29.65 "Hg2 mi
1:40 AM86 °FPassing clouds.14 mph66%29.65 "Hg2 mi
1:10 AM86 °FWarm.9 mph66%29.68 "HgN/A
Weather by CustomWeather, © 2015

See weather overviewHow to use our weather pages